NOAA 17 DEB

Satellite information

Favourite Embed

Satellite Type and Status

DEBRISIN ORBIT

Key statistics

Satellite NOAA 17 DEB at a glance.

Uptime

8354

Days in orbit

Revolutions

≈ 14.5

Per day

Orbit

SSO

Sun Synchronous Orbit

Inclination

98.7

Latest

Satellite identification and parameters

Extended collection of information and parameters for NOAA 17 DEB.

Object identification

Identified? True

Debris? True

Object name: NOAA 17 DEB

International designator: 2002-032AC

Object number (NORAD): 48611

Object ID (CCSDS): 48611

Country: UNITED STATES OF AMERICA (US)

Current information (Y/N): Y

RCS size: SMALL

Orbital parameters

Period: 99.278 minutes

Inclination: 98.7185 deg

SMA: 7102.244 km

Apoapsis: 730.254 km

Periapsis: 717.963 km

RAAN: 97.2792 deg

Eccentricy: 0.0008653

Argument of periapsis: 42.2423 deg

Mean anomaly: 317.9436 deg

Mean motion: 14.5047221 rev/day

Mean motion (dot): 0.00010179 rev/day2

B* drag term: 0.0026099 1/REarth

Two-line elements (TLE)

Creation date: May 8, 2025, 3:01 a.m.

Reference frame: TEME

Reference center: EARTH

Epoch: May 7, 2025, 9:05 a.m. UTC

TLE line 0: 0 NOAA 17 DEB

TLE line 1: 1 48611U 02032AC 25127.37854296 .00010179 00000-0 26099-2 0 9994

TLE line 2: 2 48611 98.7185 97.2792 0008653 42.2423 317.9436 14.50472210212515

Live tracking on map

Real-time ground track for satellite NOAA 17 DEB.

In-orbit conjunctions

A list of the most updated potential collisions computed for object NOAA 17 DEB.

Target Orbit TCA Probability of collision Miss distance Type
OAO 2 LEO 2025-01-07 10:23:24 0.0001505865 159.0 (m) PAYLOAD
FENGYUN 1C DEB SSO 2024-11-11 01:50:39 0.0002450763 260.0 (m) DEBRIS
SL-3 DEB LEO 2024-07-25 12:20:31 0.0001270456 60.0 (m) DEBRIS

Associated space launch

NOAA M carried weather imagers and microwave and infrared sounders, as well as a SARSAT search-and-rescue package. It had an on-orbit mass of 1475 kg.

NOAA 17 DEB was lifted into orbit during the mission ‘Titan II SLV | NOAA 17’, on board a Titan II SLV space rocket.

The launch took place on June 24, 2002, 6:23 p.m. from Space Launch Complex 4W.

For more information about the launch, click the button.

Launch to space Titan II SLV | NOAA 17
Titan II SLV | NOAA 17

Agency: N/A

Status: Launch Successful

Launch date: June 24, 2002, 6:23 p.m. UTC

Rocket: Titan II SLV

Launch pad: Space Launch Complex 4W

Location: Vandenberg SFB, CA, USA

...

Latest news about this satellite

There are no fresh news available about this satellite. Check back as we update our databases every day.


Newsletter sign-up

Weekly statistics, charts and insights to help you stay on top of the space industry.